Theta_e
287 287 286 285 285 283 283 282 281 280 279 278 277 277 276 276 276 276 276 276 275 276 276 276 276 277 275 275 276 276 275 275 272 274 277 277 277 276 277 278 278 277 278
287 286 285 283 282 282 281 280 279 278 277 277 276 276 276 276 275 275 274 275 274 274 275 274 274 275 274 274 274 274 274 274 273 271 274 274 274 276 276 275 276 277 277
287 284 283 282 281 281 280 278 278 277 276 276 276 275 275 275 274 274 274 274 274 273 273 273 273 273 273 273 273 273 274 275 274 272 272 274 274 275 274 275 275 276 277
285 283 282 282 281 280 278 278 277 277 275 275 275 274 274 274 274 274 274 273 273 273 273 273 273 273 273 273 274 274 274 273 273 272 272 272 273 275 275 273 273 275 275
284 283 282 282 280 277 277 277 276 275 275 274 273 273 273 273 273 273 273 273 273 273 274 274 274 275 276 276 275 274 274 274 273 273 272 273 273 273 273 274 273 274 275
284 283 282 279 277 277 277 276 275 274 274 274 273 273 272 273 276 277 276 274 274 274 274 274 274 274 275 277 278 279 278 274 273 273 273 272 272 273 273 273 272 272 270
283 282 279 278 276 276 276 275 274 273 274 273 272 273 272 273 277 278 278 276 275 274 273 273 274 274 274 274 276 278 278 278 279 276 273 273 273 274 274 273 272 272 271
282 279 277 276 276 275 274 274 273 273 272 272 272 272 272 272 276 277 277 275 274 274 274 273 273 274 275 275 274 274 275 275 276 276 275 275 275 276 276 275 274 273 274
279 278 276 276 275 273 273 272 272 272 272 271 272 271 271 272 276 275 275 275 274 273 274 274 274 274 275 277 275 274 273 273 277 278 278 279 280 280 280 277 274 273 271
278 277 276 275 274 273 273 272 273 273 271 271 271 271 271 269 274 275 276 274 269 272 273 275 275 274 276 277 275 273 270 271 271 273 274 274 274 274 277 277 275 271 271
276 275 274 274 273 273 272 272 272 272 271 270 269 269 269 269 270 275 276 273 272 271 273 272 273 275 277 277 277 273 270 274 273 268 268 270 271 272 274 276 276 274 272
273 273 273 272 272 272 270 269 271 270 269 268 267 268 269 270 272 274 275 275 276 267 270 272 272 275 275 275 274 274 275 274 267 266 266 267 268 270 271 274 276 277 277
272 271 271 271 270 270 270 269 268 268 268 267 267 268 269 270 270 274 274 274 274 273 272 272 273 272 272 271 271 272 270 267 266 265 265 267 269 270 271 271 273 275 276
271 270 269 268 268 268 269 269 268 267 267 268 268 268 268 269 269 270 270 271 273 271 271 266 268 269 269 269 267 268 267 267 266 266 266 268 270 270 269 270 270 271 270
271 268 268 269 267 267 268 268 268 269 270 269 269 269 267 267 268 270 271 270 266 270 262 258 260 263 264 264 265 265 266 266 266 267 266 266 268 268 268 270 269 268 267
270 268 268 268 267 267 267 268 272 272 274 274 273 270 269 271 274 274 273 272 271 270 255 252 259 261 261 262 262 263 264 265 266 266 266 267 267 267 268 268 268 267 266
270 269 268 268 267 266 267 267 267 272 275 274 274 273 272 272 274 273 272 269 269 263 250 252 256 259 260 261 262 262 263 264 266 266 265 267 268 268 266 265 266 266 265
271 269 268 267 266 267 267 267 268 268 268 268 273 273 273 273 273 272 269 263 256 255 249 250 252 256 258 259 260 261 262 263 264 265 265 268 268 266 265 264 265 264 264
270 268 268 267 267 267 267 267 267 267 266 265 264 269 269 272 272 270 264 255 251 249 247 248 251 254 257 258 259 260 261 262 263 264 265 268 267 266 265 265 265 265 264
270 269 267 267 266 265 265 264 264 264 263 262 262 260 259 259 256 255 252 248 246 248 248 248 250 252 255 256 258 259 260 261 262 265 265 268 267 266 265 265 264 264 264
269 267 267 266 266 265 265 264 263 262 261 261 260 259 262 258 255 253 249 247 247 246 248 247 248 251 254 255 256 258 259 261 263 264 267 267 266 265 265 265 265 265 264
267 266 265 264 264 263 263 263 262 261 260 259 258 259 266 255 253 252 249 248 247 246 245 247 247 250 253 254 256 257 259 260 263 264 267 266 266 265 265 264 264 264 264
264 264 263 262 262 261 261 261 260 259 258 258 258 256 255 253 251 249 247 246 246 244 245 246 245 250 253 254 256 257 258 261 264 267 267 266 265 265 265 264 264 263 263
263 262 262 261 261 260 260 259 259 258 257 256 256 254 254 251 248 248 246 243 242 244 246 246 245 248 251 253 255 257 260 262 266 269 267 266 265 265 264 264 264 263 263
262 261 261 260 259 259 258 258 257 257 256 256 254 254 252 252 250 248 246 245 244 244 246 247 246 249 250 252 253 255 259 263 268 269 267 266 265 264 264 264 263 263 263
261 260 260 259 258 258 257 257 256 256 255 255 254 254 253 252 251 249 247 246 246 246 247 247 248 249 250 253 255 259 263 267 272 268 267 266 265 264 264 264 263 263 262
Wind_Speed
15 15 15 15 14 11 13 12 12 10 11 12 11 9 8 8 6 5 5 5 5 5 5 5 7 5 4 4 5 7 8 9 16 28 15 15 17 17 15 14 15 17 16
15 14 15 12 12 13 13 12 11 12 9 10 10 9 9 7 7 6 5 4 5 5 5 5 6 6 7 7 6 10 10 11 13 26 24 18 20 18 18 18 15 15 17
14 14 13 13 14 15 13 12 12 12 11 10 10 10 9 8 7 6 6 6 5 5 5 6 7 7 9 8 10 10 10 10 12 15 23 17 18 17 19 17 17 18 16
14 15 15 16 16 14 13 13 13 12 12 10 9 9 8 7 7 6 6 5 5 5 6 7 7 9 11 12 12 13 12 12 13 15 18 21 17 17 16 17 17 13 16
16 15 16 14 13 13 14 14 13 13 11 10 9 7 7 6 5 6 6 5 6 6 7 8 9 11 19 20 13 12 13 12 12 14 17 17 17 16 18 15 17 17 16
16 17 14 14 14 15 15 14 13 12 12 12 10 10 8 6 12 13 10 8 8 8 8 7 9 12 15 23 25 28 24 17 18 15 16 18 23 18 17 17 17 18 20
15 14 14 16 16 16 15 15 15 14 13 12 11 10 10 9 15 14 12 7 6 6 8 9 10 9 13 14 21 27 26 29 32 23 23 21 24 20 20 22 20 21 20
14 14 15 16 16 15 15 15 15 14 14 13 12 11 9 8 14 13 12 6 7 7 8 10 12 13 13 15 17 17 17 18 19 17 20 23 21 21 21 21 23 25 22
14 15 16 17 16 16 16 15 13 12 11 10 9 10 10 9 14 11 10 6 6 7 8 10 11 12 18 23 18 18 19 19 18 28 35 39 39 40 35 19 17 16 19
14 13 13 15 16 17 16 15 13 12 11 8 8 8 10 8 13 13 11 4 4 5 8 9 12 14 22 24 17 16 17 19 20 19 18 18 24 25 37 25 17 16 17
9 11 12 13 14 14 14 12 13 12 11 10 10 8 8 9 10 14 12 4 3 4 3 5 6 19 23 27 26 13 16 23 20 15 16 14 15 16 15 14 17 16 16
7 10 11 11 11 11 15 11 13 13 13 11 10 7 6 8 11 11 9 6 6 3 3 5 8 20 24 23 19 23 27 24 12 13 14 14 14 14 13 16 16 16 17
8 10 11 10 10 11 14 13 11 12 11 10 9 8 7 6 5 11 8 7 4 3 2 9 18 19 19 15 19 23 19 10 11 12 13 15 14 15 18 17 18 19 20
12 11 9 12 12 11 9 11 11 11 11 11 10 9 8 6 5 4 3 3 5 3 4 4 10 12 14 14 10 11 10 10 12 12 13 15 16 15 14 14 14 13 14
13 13 12 10 12 12 10 12 12 10 12 13 10 11 12 8 5 9 8 5 4 2 3 3 4 5 7 8 8 10 10 10 11 12 14 15 15 15 15 13 13 14 15
12 11 13 12 12 10 12 11 16 17 18 17 19 12 7 12 13 8 5 5 2 7 4 1 3 5 7 8 9 10 10 12 12 13 14 14 16 15 15 14 14 13 14
15 14 10 10 10 13 13 12 14 16 22 19 23 21 15 11 13 9 6 6 6 7 2 2 3 5 7 8 9 10 12 12 15 13 15 15 15 15 17 14 14 13 14
15 17 13 12 12 12 12 12 12 14 15 13 19 17 18 15 13 10 7 5 3 4 1 2 4 6 6 8 9 10 11 12 13 14 15 15 16 15 15 15 14 15 14
14 13 13 11 12 13 12 10 10 9 10 11 8 15 9 16 14 12 5 2 2 1 2 2 5 5 6 8 9 9 11 12 14 14 14 16 17 15 16 15 15 20 19
13 16 16 12 12 13 12 12 11 10 11 10 8 8 5 4 3 3 1 2 2 2 2 4 5 4 7 9 9 9 11 13 13 14 15 17 17 16 16 17 15 16 14
10 12 17 12 13 12 12 12 10 9 10 10 8 7 14 6 6 4 3 2 2 2 3 4 4 5 8 8 7 9 11 12 13 14 14 18 18 17 16 16 16 15 15
10 12 12 13 12 12 11 10 11 9 8 9 8 5 17 5 4 3 2 2 3 4 3 5 4 4 8 8 8 9 12 13 14 15 16 18 18 17 17 16 16 15 14
12 13 12 12 12 15 12 11 10 10 9 9 6 5 6 4 3 3 3 1 4 2 2 5 4 5 7 8 8 8 11 13 14 13 16 17 18 18 18 17 17 16 15
13 13 13 13 13 12 11 11 10 12 11 9 7 6 5 3 2 3 2 3 3 2 4 5 4 5 9 9 8 9 11 13 15 11 18 17 17 21 18 18 17 21 16
11 12 12 13 13 12 13 10 10 10 9 8 7 6 5 4 2 3 3 2 2 3 5 6 4 6 10 14 15 15 19 25 20 14 13 17 20 24 21 17 21 19 20
11 11 11 11 11 11 10 11 10 9 8 6 5 5 5 4 3 3 2 1 3 4 6 5 6 9 12 12 13 18 22 25 19 16 13 14 17 18 18 21 27 18 21
Wind_Direction
195 195 195 195 189 175 183 187 179 162 162 160 159 158 162 164 171 175 177 180 206 217 228 237 249 254 254 250 255 251 249 249 265 287 281 289 288 292 291 287 283 281 279
200 193 197 183 175 178 186 175 159 162 159 158 157 162 166 165 161 169 187 193 205 220 246 250 260 270 263 265 261 256 254 249 258 274 287 292 289 289 287 284 281 276 277
194 189 187 184 183 188 179 162 157 152 158 162 164 166 165 165 166 166 189 192 201 212 234 251 265 267 272 270 263 262 257 256 256 266 282 287 287 292 287 277 276 274 271
189 188 188 189 188 181 166 161 160 162 160 161 167 158 163 160 162 174 198 199 217 228 234 245 262 267 270 270 266 265 265 262 258 260 268 279 276 280 282 289 284 269 276
189 191 195 184 175 162 162 163 160 161 159 153 150 150 150 155 168 181 193 198 221 233 247 259 260 260 270 272 271 271 269 266 268 268 269 272 277 284 279 284 280 290 277
188 193 180 168 165 166 165 163 160 157 155 153 160 161 159 174 198 205 194 200 215 245 265 272 272 272 265 274 282 285 283 283 275 272 278 276 278 277 276 275 278 280 284
185 179 169 166 170 171 164 160 167 165 157 162 160 164 173 181 198 204 216 218 224 248 266 275 276 272 273 277 279 284 286 281 277 281 281 279 284 281 280 279 274 272 273
176 170 167 168 170 166 164 168 165 163 163 166 171 170 171 184 196 204 213 219 235 248 260 265 268 277 279 289 291 285 281 279 276 271 269 274 271 275 265 265 265 267 268
178 175 172 167 166 165 170 167 162 160 160 162 165 164 169 180 190 198 211 220 234 253 261 265 270 281 293 295 296 296 296 290 287 293 291 287 286 288 285 281 270 264 268
182 176 166 165 166 169 164 163 163 165 159 155 157 169 177 169 194 198 208 195 212 242 261 270 281 290 301 301 304 302 304 308 302 299 303 303 295 283 280 269 272 265 270
142 148 159 166 164 163 155 161 151 154 149 155 154 175 180 178 191 192 206 185 198 246 254 286 292 302 303 313 310 314 300 302 314 315 299 296 293 289 291 262 249 249 258
136 147 158 158 156 157 154 156 158 154 153 154 153 174 190 188 187 194 205 224 254 148 265 294 289 305 317 313 319 308 310 318 308 303 300 294 296 294 294 295 288 268 252
151 162 157 153 153 161 158 160 157 158 158 160 169 161 171 178 180 189 198 226 284 277 285 295 323 316 320 317 307 316 319 305 299 299 302 295 296 298 295 291 280 280 280
171 171 163 161 160 166 165 163 166 173 168 164 165 158 160 172 186 188 196 240 268 282 321 335 316 321 311 307 305 312 304 299 300 299 299 297 294 299 296 292 286 290 287
171 165 170 171 173 170 183 173 167 184 188 167 167 160 151 167 202 204 194 189 195 233 74 15 301 313 316 319 321 311 299 298 304 302 301 297 296 300 296 289 294 289 280
180 180 175 175 176 186 170 169 182 164 177 166 149 141 132 161 181 180 179 118 141 54 58 285 295 315 313 315 315 304 302 309 308 304 303 297 305 301 302 300 291 284 280
187 174 177 178 183 181 175 176 153 161 156 160 145 148 156 170 162 163 145 125 102 81 98 269 288 295 298 302 301 300 311 311 309 304 300 306 309 307 307 299 293 288 282
182 179 172 175 176 178 182 176 160 157 156 159 154 150 160 172 161 151 140 105 53 32 181 274 277 276 295 298 294 300 308 305 307 311 303 308 313 309 306 300 294 290 285
185 170 174 174 172 173 165 165 147 158 153 136 130 139 164 174 152 138 116 129 136 228 268 282 252 269 294 288 286 300 304 300 307 307 305 315 318 314 308 301 296 295 287
186 173 170 167 164 165 165 147 148 158 147 147 151 131 145 94 112 147 178 132 160 229 261 266 269 287 285 282 299 306 309 307 310 315 307 321 319 316 310 308 304 299 291
174 168 164 160 165 161 150 149 149 153 146 151 145 155 160 151 154 160 179 183 203 247 258 263 274 288 282 286 299 307 308 308 305 315 312 324 321 317 315 311 305 299 294
158 158 156 154 145 143 139 133 138 140 143 138 139 182 149 121 143 150 174 211 249 239 245 265 258 267 280 287 301 308 307 304 309 313 325 326 322 321 319 316 312 309 302
147 151 149 143 138 130 126 128 131 133 131 132 136 119 118 134 155 169 198 219 255 264 267 257 255 295 287 288 297 289 297 300 308 304 331 326 326 326 325 322 322 319 314
144 146 140 132 129 126 127 131 133 130 131 133 141 130 137 140 177 202 206 252 291 299 266 268 252 268 288 298 301 300 295 297 309 322 336 327 329 328 328 327 329 326 318
134 132 131 127 129 126 126 129 126 125 128 142 139 139 124 149 163 222 232 258 277 273 286 281 270 285 294 303 296 301 300 305 313 342 337 334 335 336 335 332 334 331 331
121 120 118 121 119 121 128 127 125 126 132 129 132 124 133 149 200 219 225 282 282 285 301 282 288 296 301 301 300 307 307 315 328 358 339 337 342 340 340 339 340 340 337